Weather History for Charles City, IA

Change the Weather History Date:

Sunday, February 3, 2013

  Actual Average Record
Temperature  
Mean Temperature 14 °F -  
Max Temperature 21 °F 25 °F 44 °F (1973)
Min Temperature 8 °F 6 °F -22 °F (1989)
Degree Days  
Heating Degree Days 50    
Moisture  
Dew Point 10 °F    
Average Humidity 75    
Maximum Humidity 93    
Minimum Humidity 62    
Precipitation  
Precipitation 0.00 in - - ()
Sea Level Pressure  
Sea Level Pressure 29.99 in    
Wind  
Wind Speed 10 mph (West)    
Max Wind Speed 28 mph    
Max Gust Speed 36 mph    
Visibility 9 miles    
Events Rain , Snow    
Averages and records for this station are not official NWS values.
T = Trace of Precipitation, MM = Missing Value Source: NWS Daily Summary

Daily Weather History Graph

Daily Weather History Graph

Search for Another Location

Airport:

Trip Planner

Search our weather history database for the weather conditions in past years. The results will help you decide how hot, cold, wet, or windy it might be!

Date:

Astronomy

Feb. 03, 2013 Rise Set
Actual Time 7:23 AM CST 5:26 PM CST
Civil Twilight 6:53 AM CST 5:56 PM CST
Nautical Twilight 6:19 AM CST 6:29 PM CST
Astronomical Twilight 5:46 AM CST 7:03 PM CST
Moon 12:51 AM CST (2/3) 11:02 AM CST (2/3)
Length of Visible Light 11h 02m
Length of Day
10h 02m
Waning Gibbous, 48% of the Moon is Illuminated
Feb 3
Waning Gibbous
Feb 10
New
Feb 17
First Quarter
Feb 25
Full
Mar 4
Last Quarter

Hourly Weather History & Observations

Time (CST) Temp. Windchill Dew Point Humidity Pressure Visibility Wind Dir Wind Speed Gust Speed Precip Events Conditions
12:15 AM 14.0 °F - 12.2 °F 93% 29.93 in 8.0 mi Calm Calm - N/A   Overcast
12:35 AM 15.8 °F - 12.2 °F 86% 29.94 in 8.0 mi Calm Calm - N/A   Overcast
12:55 AM 15.8 °F - 12.2 °F 86% 29.94 in 10.0 mi Calm Calm - N/A   Overcast
1:15 AM 15.8 °F - 12.2 °F 86% 29.94 in 8.0 mi Calm Calm - N/A   Overcast
1:35 AM 15.8 °F 8.6 °F 14.0 °F 93% 29.94 in 8.0 mi WNW 4.6 mph - N/A   Overcast
1:55 AM 17.6 °F 6.4 °F 14.0 °F 86% 29.94 in 9.0 mi WNW 9.2 mph - N/A Snow Light Snow
2:15 AM 17.6 °F 3.7 °F 14.0 °F 86% 29.95 in 6.0 mi WNW 13.8 mph - N/A Snow Light Snow
2:35 AM 19.4 °F 2.8 °F 14.0 °F 80% 29.96 in 6.0 mi NW 21.9 mph 29.9 mph N/A Rain Light Freezing Rain
2:55 AM 17.6 °F 0.5 °F 14.0 °F 86% 29.97 in 4.0 mi NW 21.9 mph 28.8 mph N/A   Haze
3:15 AM 17.6 °F -0.3 °F 12.2 °F 79% 29.97 in 4.0 mi NW 24.2 mph 31.1 mph N/A Rain Light Freezing Rain
3:55 AM 15.8 °F -2.7 °F 10.4 °F 79% 29.98 in 4.0 mi NW 24.2 mph 34.5 mph N/A Rain Light Freezing Rain
4:15 AM 15.8 °F -3.7 °F 8.6 °F 73% 29.99 in 4.0 mi NW 27.6 mph 35.7 mph N/A Snow Light Snow
4:35 AM 15.8 °F -1.5 °F 8.6 °F 73% 30.00 in 7.0 mi NW 20.7 mph 29.9 mph N/A Rain Light Freezing Rain
4:55 AM 14.0 °F -4.3 °F 8.6 °F 79% 30.00 in 3.0 mi NW 21.9 mph - N/A Snow Light Snow
5:15 AM 14.0 °F -3.4 °F 6.8 °F 73% 30.02 in 8.0 mi NW 19.6 mph - N/A   Overcast
5:35 AM 12.2 °F -5.3 °F 6.8 °F 79% 30.02 in 7.0 mi NW 18.4 mph - N/A Rain Light Freezing Rain
5:55 AM 12.2 °F -5.3 °F 6.8 °F 79% 30.03 in 6.0 mi NW 18.4 mph 24.2 mph N/A Rain Light Freezing Rain
6:15 AM 10.4 °F -8.2 °F 5.0 °F 79% 30.04 in 4.0 mi NW 19.6 mph 27.6 mph N/A Snow Light Snow
6:35 AM 10.4 °F -8.2 °F 5.0 °F 79% 30.04 in 7.0 mi NW 19.6 mph 26.5 mph N/A   Light Freezing Rain
6:55 AM 10.4 °F -7.7 °F 3.2 °F 73% 30.05 in 10.0 mi NW 18.4 mph 25.3 mph N/A   Light Freezing Rain
7:15 AM 10.4 °F -6.6 °F 3.2 °F 73% 30.05 in 10.0 mi NW 16.1 mph 23.0 mph N/A   Overcast
7:35 AM 8.6 °F -7.7 °F 3.2 °F 79% 30.06 in 10.0 mi WNW 13.8 mph - N/A   Overcast
7:55 AM 8.6 °F -7.7 °F 3.2 °F 79% 30.07 in 10.0 mi WNW 13.8 mph - N/A   Overcast
8:15 AM 10.4 °F -4.8 °F 3.2 °F 73% 30.07 in 10.0 mi WNW 12.7 mph - N/A   Overcast
8:35 AM 10.4 °F -5.4 °F 3.2 °F 73% 30.07 in 10.0 mi WNW 13.8 mph - N/A   Scattered Clouds
8:55 AM 10.4 °F -4.8 °F 3.2 °F 73% 30.07 in 10.0 mi WNW 12.7 mph - N/A   Clear
9:15 AM 10.4 °F -5.4 °F 3.2 °F 73% 30.07 in 10.0 mi WNW 13.8 mph - N/A   Mostly Cloudy
9:35 AM 12.2 °F -3.7 °F 3.2 °F 67% 30.08 in 10.0 mi WNW 15.0 mph - N/A   Scattered Clouds
9:55 AM 12.2 °F -1.8 °F 3.2 °F 67% 30.08 in 10.0 mi WNW 11.5 mph 17.3 mph N/A   Mostly Cloudy
10:15 AM 14.0 °F 1.2 °F 3.2 °F 62% 30.08 in 10.0 mi NW 10.4 mph - N/A   Partly Cloudy
10:35 AM 14.0 °F 0.5 °F 3.2 °F 62% 30.09 in 10.0 mi WNW 11.5 mph - N/A   Scattered Clouds
10:55 AM 14.0 °F -0.2 °F 5.0 °F 67% 30.08 in 10.0 mi WNW 12.7 mph - N/A   Mostly Cloudy
11:15 AM 15.8 °F 4.2 °F 6.8 °F 68% 30.08 in - WNW 9.2 mph - N/A   Mostly Cloudy
11:35 AM 15.8 °F 2.1 °F 5.0 °F 62% 30.07 in 10.0 mi WNW 12.7 mph - N/A   Mostly Cloudy
11:55 AM 15.8 °F 0.9 °F 6.8 °F 68% 30.07 in 10.0 mi West 15.0 mph - N/A   Overcast
12:15 PM 17.6 °F 4.3 °F 6.8 °F 63% 30.07 in 10.0 mi WNW 12.7 mph - N/A   Overcast
12:35 PM 17.6 °F 4.3 °F 8.6 °F 68% 30.07 in 10.0 mi WNW 12.7 mph - N/A   Overcast
12:55 PM 17.6 °F 4.3 °F 8.6 °F 68% 30.06 in 10.0 mi West 12.7 mph - N/A   Overcast
1:15 PM 17.6 °F 5.7 °F 8.6 °F 68% 30.05 in 10.0 mi West 10.4 mph 18.4 mph N/A   Overcast
1:35 PM 17.6 °F 6.4 °F 8.6 °F 68% 30.04 in 10.0 mi West 9.2 mph - N/A   Overcast
1:55 PM 17.6 °F 5.7 °F 10.4 °F 73% 30.03 in 10.0 mi WSW 10.4 mph - N/A   Overcast
2:15 PM 17.6 °F 7.3 °F 10.4 °F 73% 30.02 in 10.0 mi West 8.1 mph - N/A   Overcast
2:35 PM 17.6 °F 8.2 °F 10.4 °F 73% 30.01 in 10.0 mi West 6.9 mph - N/A   Overcast
2:55 PM 19.4 °F 10.4 °F 10.4 °F 68% 30.01 in 10.0 mi West 6.9 mph - N/A   Overcast
3:15 PM 19.4 °F 9.5 °F 10.4 °F 68% 30.01 in 10.0 mi WSW 8.1 mph - N/A   Overcast
3:35 PM 19.4 °F 8.6 °F 10.4 °F 68% 30.00 in 10.0 mi SW 9.2 mph - N/A   Overcast
3:55 PM 19.4 °F 10.4 °F 10.4 °F 68% 29.99 in 10.0 mi WSW 6.9 mph - N/A   Overcast
4:15 PM 19.4 °F 11.5 °F 10.4 °F 68% 29.99 in 10.0 mi West 5.8 mph - N/A   Mostly Cloudy
4:35 PM 19.4 °F 9.5 °F 10.4 °F 68% 29.98 in 10.0 mi SW 8.1 mph - N/A   Overcast
4:55 PM 19.4 °F 11.5 °F 12.2 °F 74% 29.97 in 10.0 mi SW 5.8 mph - N/A   Overcast
5:15 PM 19.4 °F 11.5 °F 12.2 °F 74% 29.97 in 10.0 mi SSW 5.8 mph - N/A   Mostly Cloudy
5:35 PM 19.4 °F 12.8 °F 12.2 °F 74% 29.97 in 10.0 mi South 4.6 mph - N/A   Overcast
5:55 PM 19.4 °F 12.8 °F 12.2 °F 74% 29.97 in 10.0 mi South 4.6 mph - N/A   Mostly Cloudy
6:15 PM 19.4 °F 14.3 °F 12.2 °F 74% 29.96 in 10.0 mi SSE 3.5 mph - N/A   Mostly Cloudy
6:35 PM 19.4 °F 12.8 °F 14.0 °F 80% 29.96 in 10.0 mi SE 4.6 mph - N/A   Overcast
6:55 PM 19.4 °F 12.8 °F 12.2 °F 74% 29.95 in 10.0 mi ESE 4.6 mph - N/A   Overcast
7:15 PM 19.4 °F 11.5 °F 14.0 °F 80% 29.95 in 10.0 mi ESE 5.8 mph - N/A   Overcast
7:35 PM 19.4 °F 10.4 °F 12.2 °F 74% 29.95 in 10.0 mi ESE 6.9 mph - N/A   Overcast
7:55 PM 19.4 °F 10.4 °F 12.2 °F 74% 29.94 in 10.0 mi ESE 6.9 mph - N/A   Overcast
8:15 PM 19.4 °F 8.6 °F 12.2 °F 74% 29.93 in 10.0 mi ESE 9.2 mph - N/A   Overcast
8:35 PM 19.4 °F 9.5 °F 14.0 °F 80% 29.93 in 10.0 mi ESE 8.1 mph - N/A   Mostly Cloudy
8:55 PM 19.4 °F 7.9 °F 14.0 °F 80% 29.93 in 10.0 mi ESE 10.4 mph - N/A   Overcast
9:15 PM 19.4 °F 7.2 °F 14.0 °F 80% 29.92 in 10.0 mi ESE 11.5 mph - N/A   Overcast
9:35 PM 19.4 °F 6.6 °F 14.0 °F 80% 29.90 in 10.0 mi ESE 12.7 mph - N/A   Overcast
9:55 PM 19.4 °F 6.6 °F 14.0 °F 80% 29.89 in 10.0 mi ESE 12.7 mph - N/A   Overcast
10:15 PM 19.4 °F 6.6 °F 14.0 °F 80% 29.88 in 10.0 mi ESE 12.7 mph - N/A   Overcast
10:35 PM 21.2 °F 8.3 °F 14.0 °F 74% 29.87 in 10.0 mi East 13.8 mph - N/A   Overcast
10:55 PM 21.2 °F 9.5 °F 14.0 °F 74% 29.86 in 10.0 mi ESE 11.5 mph - N/A   Overcast
11:15 PM 21.2 °F 8.9 °F 15.8 °F 80% 29.85 in 10.0 mi East 12.7 mph - N/A   Overcast
11:35 PM 21.2 °F 8.9 °F 15.8 °F 80% 29.84 in 10.0 mi East 12.7 mph - N/A   Overcast
11:55 PM 21.2 °F 9.5 °F 15.8 °F 80% 29.83 in 10.0 mi ESE 11.5 mph - N/A   Overcast